Retour au catalogue

STARLINK-34438

ActifCommunicationsVLEO
NORAD 65876·PAYLOAD·🇺🇸 United States

Lancé Oct 3, 2025 depuis Vandenberg Space Force Base

Loading…

Prochains Passages (prochaines 24 heures)

TLE

FraisSource: CelesTrak SupGP

Époque: Sep 15, 2026, 03:36 UTC

1 65876C 25223Y   26258.15048611  .00050347  00000+0  14876-2 0  2589
2 65876  53.1563 131.0579 0001055  77.7842  26.3527 15.34362909    17

Suivez STARLINK-34438 en temps réel avec AllMySat

Download on the App Store